Powrót do katalogu

STARLINK-31654

AktywnyŁącznośćVLEO
NORAD 59858·PAYLOAD·🇺🇸 United States

Wystrzelony May 24, 2024 z Cape Canaveral Space Force Station

Loading…

Następne Przeloty (najbliższe 24 godziny)

TLE

ŚwieżeSource: CelesTrak SupGP

Epoka: Sep 14, 2026, 21:30 UTC

1 59858C 24098A   26257.89631944  .00009682  00000+0  35065-3 0  2577
2 59858  43.0028 282.0333 0001739 273.4815 269.1575 15.27575920    14

Śledź STARLINK-31654 w czasie rzeczywistym z AllMySat

Download on the App Store